Simultaneous Nadir Overpasses (SNOs) Predictions

Prediction of SNOs between LANDSAT-8 and METOP-A Satellite Orbit:

Table of predicted SNOs for the next 14.0 days since TLE Epoch: 2/9/2018
Index Date (LANDSAT-8) Time (LANDSAT-8) Lat,Lon (LANDSAT-8) SZA (LANDSAT-8 ) Date (METOP-A) Time (METOP-A) Lat,Lon (METOP-A) SZA (METOP-A ) Distance(km) Time Diff (sec)
1 02/12/2018 00:06:09 -81.30, 40.95 83.09 02/12/2018 00:05:16 -81.29, 40.86 83.12 1.59 53
2 02/12/2018 00:55:35 81.31,-151.31 96.92 02/12/2018 00:55:56 81.30,-151.42 96.92 1.96 21
3 02/14/2018 19:40:23 -81.29, 107.15 84.06 02/14/2018 19:39:34 -81.29, 107.07 84.09 1.34 49
4 02/14/2018 20:29:48 81.31, -84.76 95.99 02/14/2018 20:30:13 81.31, -84.85 95.99 1.56 25
5 02/17/2018 15:14:37 -81.29, 173.69 85.02 02/17/2018 15:13:52 -81.29, 173.64 85.04 0.81 45
6 02/17/2018 16:04:02 81.32, -18.24 95.03 02/17/2018 16:04:31 81.31, -18.28 95.04 1.07 29
7 02/20/2018 10:48:51 -81.30,-119.79 86.00 02/20/2018 10:48:10 -81.30,-119.79 86.01 0.15 41
8 02/20/2018 11:38:17 81.30, 47.88 94.00 02/20/2018 11:38:50 81.30, 47.88 94.02 0.58 33
9 02/23/2018 06:23:04 -81.30, -53.29 87.00 02/23/2018 06:22:27 -81.30, -53.23 87.01 1.01 37




NCC Satellite Simultaneous Nadir Overpasses (SNOs) Prediction Service
